Showing default

EUTE 113 WEST A(SATMEX 6, 29162

Orbit data source: Space-Track

EUTE 113 WEST A(SATMEX 6, 29162 is a payload satellite owned by Satmex (FR) in GEO that was launched on Sat, 27 May 2006 UTC via an ARIANE 5ECA launch vehicle from the French Guiana (FRGUI). Payload-class satellites include a variety of spacecraft equipped with specific instruments for various scientific and technological missions. These include communications satellites like Starlink; space stations such as the ISS; scientific satellites like the Hubble; Earth observation satellites from companies like Planet Labs, Umbra, and HawkEye 360; GPS; miniature CubeSats for education and research; and military/defense satellites.

Not visible in the next 10 days
Identifier
29162, 2006-020A
Orbit
GEO
Country
Flag of UnknownUnknown / EUTE
Related business
Manufacturer
SS/Loral
Mission
Non-operational Commercial Communications
Bus & Motor
SSL-1300X, R-4D-15-300
Mass
5,456 kg wet, 2,310 kg dry
Launch date (UTC)
2006-05-27 (19 years ago)
Launch vehicle
ARIANE 5ECA
Launch site
French Guiana (FRGUI)
Object type
Payload
Rocket body
Debris
Shape & HBR
Box + 2 Pan, 1.4 m
Radar Cross Section
46.105 m², Large (>1 m²)

Expand to show TLE details & history
Last TLE update: 21 hours ago

TLE from 21 hours ago
0 EUTE 113 WEST A(SATMEX 6
1 29162U 06020A   25260.18953812 -.00000207  00000-0  00000-0 0  9990
2 29162   1.6656  85.6050 0003438  74.0256  81.1551  0.98938815 70663
Epoch: 2025-09-17T04:32Z
TLE epoch observation values (Epoch: 2025-09-17T04:32:56.093Z)
Latitude
0.72098°
Longitude
176.23118°
Altitude
36,161.595 km
Speed
3.061 km/s
True Right ascension
16h 03m 20s
True Declination
0° 43' 13"
Sunlit
Object was in daylight at epoch
Visualization orbit readout
Latitude
Unknown
Longitude
Unknown
Altitude
Unknown
Speed
Unknown
Apparent Right ascension
Unknown
Apparent Declination
Unknown
Sunlit
N/A
Visualization observer readout
Local Sidereal Time
18:27:35
Azimuth
Unknown
Elevation
Unknown
Doppler factor
Unknown
Orbital elements
Apogee altitude
36,180.151 km
Perigee altitude
36,150.897 km
Semi-major axis
42,543.661 km
Eccentricity
0.00034
Inclination
1.6656°
RAAN
85.605°
Arg. of periapsis
74.0256°
True anomaly
81.19403°
Mean anomaly
81.1551°
Eccentric anomaly
81.17457°
Mean motion
0.24734 °/min
Orbital period
1,455.5 mins
BSTAR
0
Loading maneuver chart data...
Computing Atmospheric mass density...
Loading historical data...
Loading historical data...
Loading historical data...
Loading historical data...
Loading historical data...
Loading historical data...
Loading historical data...
Other satellites on launch #20 in the year 2006 (2006-05-27 UTC)

Documentation

Showing up to 5 results
|